Regional Weather Roundup
Issued by NWS

Home | Current Version | Previous Version | Text Only | Print | Product List | Glossary Off
Versions: 1 2 3 4 5 6 7 8 9 10 11 12 13 14 15 16 17 18 19 20 21 22 23 24 25 26 27 28 29 30 31 32 33 34 35 36 37 38 39 40 41 42 43 44 45 46 47 48 49 50

000
ASUS43 KLOT 200100
RWRIL

ILLINOIS REGIONAL WEATHER ROUNDUP
NATIONAL WEATHER SERVICE CHICAGO/ROMEOVILLE IL
800 PM CDT SUN OCT 19 2014

NOTE: "FAIR" INDICATES FEW OR NO CLOUDS BELOW 12,000 FEET WITH NO
SIGNIFICANT WEATHER AND/OR OBSTRUCTIONS TO VISIBILITY.

* THESE STATIONS ARE NOT UNDER NWS QUALITY CONTROL. THEY ALSO MAY NOT
  REPORT WEATHER SUCH AS PRECIPITATION OR FOG.

ILZ001-002-007-009-015-016-024-200200-
NORTHWEST ILLINOIS

CITY           SKY/WX    TMP DP  RH WIND       PRES   REMARKS
MOLINE         PTCLDY    56  42  59 SW7       29.93F
STERLING*      MOCLDY    55  41  58 SW3       29.93F
$$

ILZ003-004-008-010-011-017-018-200200-
NORTH CENTRAL ILLINOIS

CITY           SKY/WX    TMP DP  RH WIND       PRES   REMARKS
ROCKFORD       MOCLDY    52  42  69 S10       29.95F
$$

ILZ005-006-012>014-019>023-200200-
NORTHEAST ILLINOIS

CITY           SKY/WX    TMP DP  RH WIND       PRES   REMARKS
CHICAGO-OHARE  MOCLDY    52  42  69 S12       29.95F
CHICAGO-MIDWAY CLOUDY    54  43  66 S13       29.97F
AURORA         MOCLDY    52  42  69 S8        29.96F
WAUKEGAN       PTCLDY    50  41  71 S13       29.92F
DUPAGE AIRPORT MOCLDY    52  43  71 S10       29.95F
WHEELING       PTCLDY    53  42  66 S12       29.96F
NORTHERLY ISL    N/A     53  41  63 SW12        N/A
$$

LMZ740>746-200200-
SOUTHERN LAKE MICHIGAN

STATION/POSITION SKY/WX   TEMP    WIND        PRES    VSBY  WAVE
                          AIR SEA DIR/SP/G                  HT/PER
                          (F)     (DEG/KT/KT) (MB)    (MI)  (FT/S)
SOUTHERN BUOY              54 55  210/ 21/ 25 1014.2F         5/ 5
WAUKEGAN HARBOR            53     200/ 15/ 18   N/A
HARRISON CRIB              53     190/ 20/ 25   N/A
BURNHAM HARBOR             53     210/ 13/ 14   N/A
CALUMET HARBOR             53     180/ 10/ 15 1013.9F
MICHIGAN CITY              53     170/  9/ 11   N/A
$$

ILZ025>027-034>036-040-047-049-050-058-095>099-200200-
WEST-CENTRAL ILLINOIS

CITY           SKY/WX    TMP DP  RH WIND       PRES   REMARKS
QUINCY         MOCLDY    54  44  69 S6        30.01S
$$

ILZ028>032-037-038-041>044-048-051>054-059>061-200200-
CENTRAL ILLINOIS

CITY           SKY/WX    TMP DP  RH WIND       PRES   REMARKS
DECATUR        MOCLDY    51  44  77 S8        30.05S
PEORIA         MOCLDY    57  44  62 SW13      30.00S
SPRINGFIELD    MOCLDY    51  44  77 S6        30.04F
TAYLORVILLE    NOT AVBL
$$

ILZ033-039-045-046-055>057-062-063-200200-
EAST-CENTRAL ILLINOIS

CITY           SKY/WX    TMP DP  RH WIND       PRES   REMARKS
CHAMPAIGN      PTCLDY    48  42  80 S9        30.04F
MATTOON        MOCLDY    49  42  77 S7        30.05F
$$

ILZ079-100>102-200200-
SOUTHWEST ILLINOIS

CITY           SKY/WX    TMP DP  RH WIND       PRES   REMARKS
BELLEVILLE     PTCLDY    53  47  78 S5        30.06S
CAHOKIA*       CLEAR     55  46  71 S6        30.05F
$$

ILZ064>066-069>071-074>076-080>082-084>086-088>090-092>094-200200-
SOUTH-CENTRAL ILLINOIS

CITY           SKY/WX    TMP DP  RH WIND       PRES   REMARKS
CARBONDALE     PTCLDY    51  44  77 S3        30.09F
MT. VERNON     PTCLDY    48  43  81 CALM      30.09F
$$

ILZ067-068-072-073-078-083-087-091-200200-
SOUTHEAST ILLINOIS

CITY           SKY/WX    TMP DP  RH WIND       PRES   REMARKS
LAWRENCEVILLE  PTCLDY    46  44  93 CALM      30.10F
$$

ABBREVIATIONS USED IN REMARKS
   TC - TEMPERATURE IN CELSIUS
  WCI - WIND CHILL INDEX
   HX - HEAT INDEX
  VSB - VISIBILITY
$$



USA.gov is the U.S. government's official web portal to all federal, state and local government web resources and services.